Regional Weather Roundup
Issued by NWS Goodland, KS

Home | Current Version | Previous Version | Graphics & Text | Print | Product List | Glossary On
Versions: 1 2 3 4 5 6 7 8 9 10 11 12 13 14 15 16 17 18 19 20 21 22 23 24 25 26 27 28 29 30 31 32 33 34 35 36 37 38 39 40 41 42 43 44 45 46 47 48 49 50
000
ASUS43 KGLD 251608
RWRGLD

GOODLAND FORECAST AREA HOURLY WEATHER ROUNDUP
NATIONAL WEATHER SERVICE GOODLAND KS
1000 AM MDT WED MAY 25 2016

...OFFICIAL OBSERVATIONS...

CITY           SKY/WX    TMP DP  RH WIND       PRES   REMARKS
GOODLAND KS    CLOUDY    61  55  81 E5        29.93F
HILL CITY KS   CLOUDY    64  58  80 E10       29.88S
IMPERIAL NEB   SUNNY     67  54  63 E7        29.93F
MCCOOK NEB     SUNNY     70  56  61 E8        29.89S
AKRON CO       CLOUDY    60  53  77 S9        29.99S
BURLINGTON CO  CLOUDY    60  53  77 CALM      29.97R
LIMON CO       MOSUNNY   62  50  64 VRB5      30.02S
$$

...UNOFFICIAL OBSERVATIONS...

CITY           SKY/WX    TMP DP  RH WIND       PRES   REMARKS
COLBY KS       CLOUDY    64  61  88 E3        29.93R
GOVE KS          N/A     61  32  33 MISG        N/A
LENORA KS        N/A     64  32  30 MISG        N/A
NORTON KS      PTSUNNY   68  54  60 E8        29.87R
SHARON SPRINGS   N/A     60  58  92 NE6         N/A
TRIBUNE KS     CLOUDY    66  57  72 N9        29.95R
KIT CARSON CO    N/A     60  54  81 MISG        N/A
YUMA CO          N/A     64  55  73 CALM        N/A
$$




USA.gov is the U.S. government's official web portal to all federal, state and local government web resources and services.